Time,TemperatureF,DewpointF,PressureIn,WindDirection,WindDirectionDegrees,WindSpeedMPH,WindSpeedGustMPH,Humidity,HourlyPrecipIn,Conditions,Clouds,dailyrainin,SoftwareType,DateUTC
2013-07-14 00:01:00,66.7,65.2,29.66,NE,53,0.0,0.0,95,0.00,,,0.00,WeatherCatV1.02B3,2013-07-14 04:01:00,
2013-07-14 00:06:00,66.6,65.4,29.66,NE,53,0.0,0.0,96,0.00,,,0.00,WeatherCatV1.02B3,2013-07-14 04:06:00,
2013-07-14 00:11:00,66.7,65.5,29.66,NE,53,0.0,0.0,96,0.00,,,0.00,WeatherCatV1.02B3,2013-07-14 04:11:00,
2013-07-14 00:16:00,66.7,65.5,29.66,NE,53,0.0,0.0,96,0.00,,,0.00,WeatherCatV1.02B3,2013-07-14 04:16:00,
2013-07-14 00:21:00,66.6,65.4,29.66,NE,54,0.0,0.0,96,0.00,,,0.00,WeatherCatV1.02B3,2013-07-14 04:21:00,
2013-07-14 00:26:00,66.5,65.0,29.66,NE,54,0.0,0.0,95,0.00,,,0.00,WeatherCatV1.02B3,2013-07-14 04:26:00,
2013-07-14 00:31:00,66.3,65.1,29.66,NE,53,0.0,0.0,96,0.00,,,0.00,WeatherCatV1.02B3,2013-07-14 04:31:00,
2013-07-14 00:36:00,66.2,65.0,29.66,NE,53,0.0,0.0,96,0.00,,,0.00,WeatherCatV1.02B3,2013-07-14 04:36:00,
2013-07-14 00:41:00,66.2,65.0,29.66,NE,54,0.0,0.0,96,0.00,,,0.00,WeatherCatV1.02B3,2013-07-14 04:41:00,
2013-07-14 00:46:00,66.3,65.1,29.66,NE,54,0.0,0.0,96,0.00,,,0.00,WeatherCatV1.02B3,2013-07-14 04:46:00,
2013-07-14 00:51:00,66.4,65.2,29.66,NE,53,0.0,0.0,96,0.00,,,0.00,WeatherCatV1.02B3,2013-07-14 04:51:00,
2013-07-14 00:56:00,66.4,65.2,29.66,NE,54,0.0,0.0,96,0.00,,,0.00,WeatherCatV1.02B3,2013-07-14 04:56:00,
2013-07-14 01:01:00,66.6,65.4,29.66,NE,54,0.0,0.0,96,0.00,,,0.00,WeatherCatV1.02B3,2013-07-14 05:01:00,
2013-07-14 01:06:00,66.8,65.9,29.66,NE,54,0.0,0.0,97,0.00,,,0.00,WeatherCatV1.02B3,2013-07-14 05:06:00,
2013-07-14 01:11:00,66.9,65.7,29.66,NE,54,0.0,0.0,96,0.00,,,0.00,WeatherCatV1.02B3,2013-07-14 05:11:00,
2013-07-14 01:16:00,66.9,65.7,29.66,NE,54,0.0,0.0,96,0.00,,,0.00,WeatherCatV1.02B3,2013-07-14 05:16:00,
2013-07-14 01:21:00,66.9,65.7,29.66,NE,54,0.0,0.0,96,0.00,,,0.00,WeatherCatV1.02B3,2013-07-14 05:21:00,
2013-07-14 01:26:00,66.9,65.7,29.66,NE,54,0.0,0.0,96,0.00,,,0.00,WeatherCatV1.02B3,2013-07-14 05:26:00,
2013-07-14 01:31:00,66.9,65.7,29.66,NE,54,0.0,0.0,96,0.00,,,0.00,WeatherCatV1.02B3,2013-07-14 05:31:00,
2013-07-14 01:36:00,66.9,65.7,29.66,NE,54,0.0,1.0,96,0.00,,,0.00,WeatherCatV1.02B3,2013-07-14 05:36:00,
2013-07-14 01:41:00,66.9,65.7,29.66,NE,54,0.0,0.0,96,0.00,,,0.00,WeatherCatV1.02B3,2013-07-14 05:41:00,
2013-07-14 01:46:00,66.8,65.3,29.66,NE,54,0.0,0.0,95,0.00,,,0.00,WeatherCatV1.02B3,2013-07-14 05:46:00,
2013-07-14 01:51:00,66.7,65.2,29.66,NE,54,0.0,0.0,95,0.00,,,0.00,WeatherCatV1.02B3,2013-07-14 05:51:00,
2013-07-14 01:56:00,66.7,65.2,29.66,NE,53,0.0,0.0,95,0.00,,,0.00,WeatherCatV1.02B3,2013-07-14 05:56:00,
2013-07-14 02:01:00,66.7,65.2,29.66,NE,54,0.0,0.0,95,0.00,,,0.00,WeatherCatV1.02B3,2013-07-14 06:01:00,
2013-07-14 02:06:00,66.5,65.0,29.66,NE,54,0.0,0.0,95,0.00,,,0.00,WeatherCatV1.02B3,2013-07-14 06:06:00,
2013-07-14 02:11:00,66.4,64.9,29.66,NE,53,0.0,0.0,95,0.00,,,0.00,WeatherCatV1.02B3,2013-07-14 06:11:00,
2013-07-14 02:16:00,66.4,64.9,29.66,NE,54,0.0,0.0,95,0.00,,,0.00,WeatherCatV1.02B3,2013-07-14 06:16:00,
2013-07-14 02:21:00,66.3,64.8,29.65,NE,54,0.0,0.0,95,0.00,,,0.00,WeatherCatV1.02B3,2013-07-14 06:21:00,
2013-07-14 02:26:00,66.0,64.5,29.66,NE,54,0.0,0.0,95,0.00,,,0.00,WeatherCatV1.02B3,2013-07-14 06:26:00,
2013-07-14 02:31:00,65.5,64.0,29.65,NE,53,0.0,0.0,95,0.00,,,0.00,WeatherCatV1.02B3,2013-07-14 06:31:00,
2013-07-14 02:36:00,65.4,64.2,29.65,NE,53,0.0,0.0,96,0.00,,,0.00,WeatherCatV1.02B3,2013-07-14 06:36:00,
2013-07-14 02:41:00,65.4,64.2,29.65,NE,54,0.0,0.0,96,0.00,,,0.00,WeatherCatV1.02B3,2013-07-14 06:41:00,
2013-07-14 02:46:00,65.2,64.0,29.66,NE,54,0.0,0.0,96,0.00,,,0.00,WeatherCatV1.02B3,2013-07-14 06:46:00,
2013-07-14 02:51:00,65.0,63.8,29.65,NE,54,0.0,0.0,96,0.00,,,0.00,WeatherCatV1.02B3,2013-07-14 06:51:00,
2013-07-14 02:56:00,65.0,63.8,29.65,NE,54,0.0,0.0,96,0.00,,,0.00,WeatherCatV1.02B3,2013-07-14 06:56:00,
2013-07-14 03:01:00,65.2,64.3,29.65,NE,54,0.0,0.0,97,0.00,,,0.00,WeatherCatV1.02B3,2013-07-14 07:01:00,
2013-07-14 03:06:00,65.0,63.8,29.65,NE,54,0.0,0.0,96,0.00,,,0.00,WeatherCatV1.02B3,2013-07-14 07:06:00,
2013-07-14 03:11:00,65.0,64.1,29.65,NE,54,0.0,0.0,97,0.00,,,0.00,WeatherCatV1.02B3,2013-07-14 07:11:00,
2013-07-14 03:16:00,65.1,64.2,29.65,NE,53,0.0,0.0,97,0.00,,,0.00,WeatherCatV1.02B3,2013-07-14 07:16:00,
2013-07-14 03:21:00,65.1,64.2,29.65,NE,54,0.0,0.0,97,0.00,,,0.00,WeatherCatV1.02B3,2013-07-14 07:21:00,
2013-07-14 03:26:00,65.1,64.2,29.65,NE,53,0.0,0.0,97,0.00,,,0.00,WeatherCatV1.02B3,2013-07-14 07:26:00,
2013-07-14 03:31:00,65.0,64.1,29.66,NE,54,0.0,0.0,97,0.00,,,0.00,WeatherCatV1.02B3,2013-07-14 07:31:00,
2013-07-14 03:36:00,65.0,64.1,29.66,NE,53,0.0,0.0,97,0.00,,,0.00,WeatherCatV1.02B3,2013-07-14 07:36:00,
2013-07-14 03:41:00,65.0,64.1,29.66,NE,53,0.0,0.0,97,0.00,,,0.00,WeatherCatV1.02B3,2013-07-14 07:41:00,
2013-07-14 03:46:00,65.0,64.1,29.66,NE,54,0.0,0.0,97,0.00,,,0.00,WeatherCatV1.02B3,2013-07-14 07:46:00,
2013-07-14 03:51:00,65.0,64.1,29.66,NE,54,0.0,0.0,97,0.00,,,0.00,WeatherCatV1.02B3,2013-07-14 07:51:00,
2013-07-14 03:56:00,65.0,64.1,29.66,NE,53,0.0,0.0,97,0.00,,,0.00,WeatherCatV1.02B3,2013-07-14 07:56:00,
2013-07-14 04:01:00,64.9,64.0,29.66,NE,54,0.0,1.0,97,0.00,,,0.00,WeatherCatV1.02B3,2013-07-14 08:01:00,
2013-07-14 04:06:00,65.0,64.1,29.66,NE,53,0.0,0.0,97,0.00,,,0.00,WeatherCatV1.02B3,2013-07-14 08:06:00,
2013-07-14 04:11:00,64.9,64.0,29.67,NE,53,0.0,1.0,97,0.00,,,0.00,WeatherCatV1.02B3,2013-07-14 08:11:00,
2013-07-14 04:16:00,64.9,64.0,29.67,NE,54,0.0,0.0,97,0.00,,,0.00,WeatherCatV1.02B3,2013-07-14 08:16:00,
2013-07-14 04:21:00,64.8,63.9,29.67,NNE,27,1.0,2.0,97,0.00,,,0.00,WeatherCatV1.02B3,2013-07-14 08:21:00,
2013-07-14 04:26:00,64.9,64.0,29.67,NE,54,0.0,1.0,97,0.00,,,0.00,WeatherCatV1.02B3,2013-07-14 08:26:00,
2013-07-14 04:31:00,65.0,64.1,29.67,SW,221,0.0,0.0,97,0.00,,,0.00,WeatherCatV1.02B3,2013-07-14 08:31:00,
2013-07-14 04:36:00,65.3,64.4,29.67,ESE,122,0.0,0.0,97,0.00,,,0.00,WeatherCatV1.02B3,2013-07-14 08:36:00,
2013-07-14 04:41:00,65.4,64.5,29.67,ESE,122,0.0,0.0,97,0.00,,,0.00,WeatherCatV1.02B3,2013-07-14 08:41:00,
2013-07-14 04:46:00,65.5,64.3,29.67,ESE,121,0.0,1.0,96,0.00,,,0.00,WeatherCatV1.02B3,2013-07-14 08:46:00,
2013-07-14 04:51:00,65.7,64.5,29.67,ESE,121,0.0,1.0,96,0.00,,,0.00,WeatherCatV1.02B3,2013-07-14 08:51:00,
2013-07-14 04:56:00,65.7,64.2,29.67,ESE,123,0.0,0.0,95,0.00,,,0.00,WeatherCatV1.02B3,2013-07-14 08:56:00,
2013-07-14 05:01:00,65.6,64.4,29.67,ESE,122,0.0,1.0,96,0.00,,,0.00,WeatherCatV1.02B3,2013-07-14 09:01:00,
2013-07-14 05:06:00,65.5,64.3,29.68,ESE,121,0.0,1.0,96,0.00,,,0.00,WeatherCatV1.02B3,2013-07-14 09:06:00,
2013-07-14 05:11:00,65.4,63.9,29.68,ESE,122,0.0,0.0,95,0.00,,,0.00,WeatherCatV1.02B3,2013-07-14 09:11:00,
2013-07-14 05:16:00,65.3,64.1,29.68,ESE,122,0.0,0.0,96,0.00,,,0.00,WeatherCatV1.02B3,2013-07-14 09:16:00,
2013-07-14 05:21:00,65.2,64.0,29.68,ESE,121,0.0,0.0,96,0.00,,,0.00,WeatherCatV1.02B3,2013-07-14 09:21:00,
2013-07-14 05:26:00,65.1,63.9,29.68,ESE,122,0.0,1.0,96,0.00,,,0.00,WeatherCatV1.02B3,2013-07-14 09:26:00,
2013-07-14 05:31:00,65.2,64.0,29.68,ESE,121,0.0,0.0,96,0.00,,,0.00,WeatherCatV1.02B3,2013-07-14 09:31:00,
2013-07-14 05:36:00,65.1,63.9,29.68,ESE,121,0.0,0.0,96,0.00,,,0.00,WeatherCatV1.02B3,2013-07-14 09:36:00,
2013-07-14 05:41:00,65.0,63.8,29.68,ESE,122,0.0,1.0,96,0.00,,,0.00,WeatherCatV1.02B3,2013-07-14 09:41:00,
2013-07-14 05:46:00,64.9,63.7,29.68,ESE,121,0.0,0.0,96,0.00,,,0.00,WeatherCatV1.02B3,2013-07-14 09:46:00,
2013-07-14 05:51:00,64.9,63.7,29.69,ESE,121,0.0,0.0,96,0.00,,,0.00,WeatherCatV1.02B3,2013-07-14 09:51:00,
2013-07-14 05:56:00,65.0,63.8,29.69,ESE,121,0.0,0.0,96,0.00,,,0.00,WeatherCatV1.02B3,2013-07-14 09:56:00,
2013-07-14 06:01:00,65.0,63.8,29.69,ESE,122,0.0,1.0,96,0.00,,,0.00,WeatherCatV1.02B3,2013-07-14 10:01:00,
2013-07-14 06:06:00,65.0,63.8,29.69,ESE,122,0.0,0.0,96,0.00,,,0.00,WeatherCatV1.02B3,2013-07-14 10:06:00,
2013-07-14 06:11:00,64.9,63.7,29.69,ESE,121,0.0,1.0,96,0.00,,,0.00,WeatherCatV1.02B3,2013-07-14 10:11:00,
2013-07-14 06:16:00,64.8,63.6,29.69,ESE,121,0.0,1.0,96,0.00,,,0.00,WeatherCatV1.02B3,2013-07-14 10:16:00,
2013-07-14 06:21:00,64.9,64.0,29.69,ESE,121,0.0,0.0,97,0.00,,,0.00,WeatherCatV1.02B3,2013-07-14 10:21:00,
2013-07-14 06:26:00,65.1,64.2,29.69,ESE,120,1.0,1.0,97,0.00,,,0.00,WeatherCatV1.02B3,2013-07-14 10:26:00,
2013-07-14 06:31:00,65.2,64.0,29.69,ESE,120,0.0,1.0,96,0.00,,,0.00,WeatherCatV1.02B3,2013-07-14 10:31:00,
2013-07-14 06:36:00,65.0,63.8,29.69,ESE,120,1.0,1.0,96,0.00,,,0.00,WeatherCatV1.02B3,2013-07-14 10:36:00,
2013-07-14 06:41:00,65.2,64.3,29.69,East,79,1.0,1.0,97,0.00,,,0.00,WeatherCatV1.02B3,2013-07-14 10:41:00,
2013-07-14 06:46:00,65.5,64.6,29.69,ENE,65,0.0,1.0,97,0.00,,,0.00,WeatherCatV1.02B3,2013-07-14 10:46:00,
2013-07-14 06:51:00,65.6,64.4,29.69,ENE,61,0.0,0.0,96,0.00,,,0.00,WeatherCatV1.02B3,2013-07-14 10:51:00,
2013-07-14 06:56:00,65.7,64.5,29.69,ENE,60,0.0,1.0,96,0.00,,,0.00,WeatherCatV1.02B3,2013-07-14 10:56:00,
2013-07-14 07:01:00,65.8,64.6,29.69,ENE,74,0.0,1.0,96,0.00,,,0.00,WeatherCatV1.02B3,2013-07-14 11:01:00,
2013-07-14 07:06:00,66.0,64.8,29.69,ENE,73,1.0,1.0,96,0.00,,,0.00,WeatherCatV1.02B3,2013-07-14 11:06:00,
2013-07-14 07:11:00,66.2,65.0,29.70,ENE,74,1.0,1.0,96,0.00,,,0.00,WeatherCatV1.02B3,2013-07-14 11:11:00,
2013-07-14 07:16:00,66.3,65.1,29.70,ENE,73,0.0,1.0,96,0.00,,,0.00,WeatherCatV1.02B3,2013-07-14 11:16:00,
2013-07-14 07:21:00,66.4,65.2,29.70,ENE,72,0.0,0.0,96,0.00,,,0.00,WeatherCatV1.02B3,2013-07-14 11:21:00,
2013-07-14 07:26:00,66.4,64.9,29.70,ENE,72,0.0,0.0,95,0.00,,,0.00,WeatherCatV1.02B3,2013-07-14 11:26:00,
2013-07-14 07:31:00,66.2,64.7,29.70,NNE,33,2.0,2.0,95,0.00,,,0.00,WeatherCatV1.02B3,2013-07-14 11:31:00,
2013-07-14 07:36:00,66.4,65.2,29.70,ESE,117,0.0,0.0,96,0.00,,,0.00,WeatherCatV1.02B3,2013-07-14 11:36:00,
2013-07-14 07:41:00,66.6,65.4,29.70,ESE,115,0.0,0.0,96,0.00,,,0.00,WeatherCatV1.02B3,2013-07-14 11:41:00,
2013-07-14 07:46:00,67.3,66.1,29.70,East,98,0.0,0.0,96,0.00,,,0.00,WeatherCatV1.02B3,2013-07-14 11:46:00,
2013-07-14 07:51:00,68.1,66.9,29.70,East,96,0.0,1.0,96,0.00,,,0.00,WeatherCatV1.02B3,2013-07-14 11:51:00,
2013-07-14 07:56:00,69.4,67.9,29.70,East,96,0.0,0.0,95,0.00,,,0.00,WeatherCatV1.02B3,2013-07-14 11:56:00,
2013-07-14 08:01:00,70.2,67.4,29.70,North,351,1.0,1.0,91,0.00,,,0.00,WeatherCatV1.02B3,2013-07-14 12:01:00,
2013-07-14 08:06:00,70.6,67.8,29.70,NNW,335,0.0,0.0,91,0.00,,,0.00,WeatherCatV1.02B3,2013-07-14 12:06:00,
2013-07-14 08:11:00,71.2,68.1,29.69,NE,53,1.0,3.0,90,0.00,,,0.00,WeatherCatV1.02B3,2013-07-14 12:11:00,
2013-07-14 08:16:00,71.8,68.7,29.70,NE,37,0.0,0.0,90,0.00,,,0.00,WeatherCatV1.02B3,2013-07-14 12:16:00,
2013-07-14 08:21:00,72.2,68.4,29.70,East,85,0.0,2.0,88,0.00,,,0.00,WeatherCatV1.02B3,2013-07-14 12:21:00,
2013-07-14 08:26:00,72.8,69.4,29.69,SSW,210,0.0,1.0,89,0.00,,,0.00,WeatherCatV1.02B3,2013-07-14 12:26:00,
2013-07-14 08:31:00,73.3,69.2,29.70,ESE,104,0.0,2.0,87,0.00,,,0.00,WeatherCatV1.02B3,2013-07-14 12:31:00,
2013-07-14 08:36:00,73.6,69.5,29.69,North,349,3.0,4.0,87,0.00,,,0.00,WeatherCatV1.02B3,2013-07-14 12:36:00,
2013-07-14 08:41:00,73.9,69.8,29.70,SW,226,0.0,0.0,87,0.00,,,0.00,WeatherCatV1.02B3,2013-07-14 12:41:00,
2013-07-14 08:46:00,74.2,69.0,29.70,ESE,106,1.0,4.0,84,0.00,,,0.00,WeatherCatV1.02B3,2013-07-14 12:46:00,
2013-07-14 08:51:00,74.5,69.3,29.69,ESE,117,1.0,2.0,84,0.00,,,0.00,WeatherCatV1.02B3,2013-07-14 12:51:00,
2013-07-14 08:56:00,75.2,70.0,29.69,ESE,120,0.0,1.0,84,0.00,,,0.00,WeatherCatV1.02B3,2013-07-14 12:56:00,
2013-07-14 09:01:00,75.9,70.4,29.69,WSW,240,0.0,2.0,83,0.00,,,0.00,WeatherCatV1.02B3,2013-07-14 13:01:00,
2013-07-14 09:06:00,76.3,70.7,29.69,NNE,13,0.0,1.0,83,0.00,,,0.00,WeatherCatV1.02B3,2013-07-14 13:06:00,
2013-07-14 09:11:00,77.1,71.2,29.69,NNE,15,0.0,1.0,82,0.00,,,0.00,WeatherCatV1.02B3,2013-07-14 13:11:00,
2013-07-14 09:16:00,77.6,71.3,29.70,NW,308,1.0,1.0,81,0.00,,,0.00,WeatherCatV1.02B3,2013-07-14 13:16:00,
2013-07-14 09:21:00,78.1,71.4,29.70,ENE,60,0.0,1.0,80,0.00,,,0.00,WeatherCatV1.02B3,2013-07-14 13:21:00,
2013-07-14 09:26:00,78.6,71.1,29.70,ENE,74,1.0,2.0,78,0.00,,,0.00,WeatherCatV1.02B3,2013-07-14 13:26:00,
2013-07-14 09:31:00,78.5,71.4,29.70,NE,54,0.0,1.0,79,0.00,,,0.00,WeatherCatV1.02B3,2013-07-14 13:31:00,
2013-07-14 09:36:00,78.9,71.4,29.70,ESE,115,1.0,1.0,78,0.00,,,0.00,WeatherCatV1.02B3,2013-07-14 13:36:00,
2013-07-14 09:41:00,79.1,72.4,29.70,NNW,348,0.0,1.0,80,0.00,,,0.00,WeatherCatV1.02B3,2013-07-14 13:41:00,
2013-07-14 09:46:00,79.2,72.1,29.70,ENE,72,1.0,3.0,79,0.00,,,0.00,WeatherCatV1.02B3,2013-07-14 13:46:00,
2013-07-14 09:51:00,79.2,72.1,29.70,West,274,1.0,1.0,79,0.00,,,0.00,WeatherCatV1.02B3,2013-07-14 13:51:00,
2013-07-14 09:56:00,79.3,70.3,29.70,NW,319,0.0,3.0,74,0.00,,,0.00,WeatherCatV1.02B3,2013-07-14 13:56:00,
2013-07-14 10:01:00,79.5,72.0,29.70,NE,56,0.0,2.0,78,0.00,,,0.00,WeatherCatV1.02B3,2013-07-14 14:01:00,
2013-07-14 10:06:00,80.2,73.1,29.69,NNW,335,0.0,1.0,79,0.00,,,0.00,WeatherCatV1.02B3,2013-07-14 14:06:00,
2013-07-14 10:11:00,80.8,73.3,29.70,NE,47,1.0,3.0,78,0.00,,,0.00,WeatherCatV1.02B3,2013-07-14 14:11:00,
2013-07-14 10:16:00,81.0,72.3,29.69,NNE,27,1.0,2.0,75,0.00,,,0.00,WeatherCatV1.02B3,2013-07-14 14:16:00,
2013-07-14 10:21:00,81.3,73.4,29.69,East,97,2.0,2.0,77,0.00,,,0.00,WeatherCatV1.02B3,2013-07-14 14:21:00,
2013-07-14 10:26:00,82.0,72.9,29.70,ESE,121,1.0,2.0,74,0.00,,,0.00,WeatherCatV1.02B3,2013-07-14 14:26:00,
2013-07-14 10:31:00,82.1,73.0,29.69,NE,36,2.0,2.0,74,0.00,,,0.00,WeatherCatV1.02B3,2013-07-14 14:31:00,
2013-07-14 10:36:00,81.7,71.8,29.69,North,9,0.0,8.0,72,0.00,,,0.00,WeatherCatV1.02B3,2013-07-14 14:36:00,
2013-07-14 10:41:00,82.1,72.6,29.70,WNW,293,1.0,3.0,73,0.00,,,0.00,WeatherCatV1.02B3,2013-07-14 14:41:00,
2013-07-14 10:46:00,82.5,73.4,29.70,NW,311,0.0,1.0,74,0.00,,,0.00,WeatherCatV1.02B3,2013-07-14 14:46:00,
2013-07-14 10:51:00,82.8,72.8,29.70,North,350,2.0,5.0,72,0.00,,,0.00,WeatherCatV1.02B3,2013-07-14 14:51:00,
2013-07-14 10:56:00,82.8,74.4,29.70,ENE,72,0.0,1.0,76,0.00,,,0.00,WeatherCatV1.02B3,2013-07-14 14:56:00,
2013-07-14 11:01:00,83.3,72.0,29.70,NW,316,1.0,3.0,69,0.00,,,0.00,WeatherCatV1.02B3,2013-07-14 15:01:00,
2013-07-14 11:06:00,83.8,72.9,29.70,NNE,29,2.0,4.0,70,0.00,,,0.00,WeatherCatV1.02B3,2013-07-14 15:06:00,
2013-07-14 11:11:00,83.6,72.8,29.70,ENE,63,1.0,2.0,70,0.00,,,0.00,WeatherCatV1.02B3,2013-07-14 15:11:00,
2013-07-14 11:16:00,84.0,73.1,29.70,NE,56,2.0,3.0,70,0.00,,,0.00,WeatherCatV1.02B3,2013-07-14 15:16:00,
2013-07-14 11:21:00,83.8,72.1,29.70,East,82,3.0,4.0,68,0.00,,,0.00,WeatherCatV1.02B3,2013-07-14 15:21:00,
2013-07-14 11:26:00,84.0,72.7,29.70,NNW,340,1.0,3.0,69,0.00,,,0.00,WeatherCatV1.02B3,2013-07-14 15:26:00,
2013-07-14 11:31:00,84.4,73.5,29.70,ENE,68,2.0,4.0,70,0.00,,,0.00,WeatherCatV1.02B3,2013-07-14 15:31:00,
2013-07-14 11:36:00,84.3,73.4,29.70,NW,319,2.0,4.0,70,0.00,,,0.00,WeatherCatV1.02B3,2013-07-14 15:36:00,
2013-07-14 11:41:00,84.7,73.4,29.70,SW,231,2.0,3.0,69,0.00,,,0.00,WeatherCatV1.02B3,2013-07-14 15:41:00,
2013-07-14 11:46:00,84.7,72.9,29.70,NW,325,2.0,2.0,68,0.00,,,0.00,WeatherCatV1.02B3,2013-07-14 15:46:00,
2013-07-14 11:51:00,84.6,72.4,29.70,SW,233,1.0,2.0,67,0.00,,,0.00,WeatherCatV1.02B3,2013-07-14 15:51:00,
2013-07-14 11:56:00,85.1,74.6,29.70,SE,130,1.0,1.0,71,0.00,,,0.00,WeatherCatV1.02B3,2013-07-14 15:56:00,
2013-07-14 12:01:00,85.3,72.2,29.70,ESE,116,1.0,2.0,65,0.00,,,0.00,WeatherCatV1.02B3,2013-07-14 16:01:00,
2013-07-14 12:06:00,85.6,74.2,29.70,NNE,27,1.0,1.0,69,0.00,,,0.00,WeatherCatV1.02B3,2013-07-14 16:06:00,
2013-07-14 12:11:00,86.4,74.1,29.70,SSE,158,0.0,0.0,67,0.00,,,0.00,WeatherCatV1.02B3,2013-07-14 16:11:00,
2013-07-14 12:16:00,86.8,74.0,29.70,NNE,16,1.0,3.0,66,0.00,,,0.00,WeatherCatV1.02B3,2013-07-14 16:16:00,
2013-07-14 12:21:00,87.2,73.0,29.70,West,259,0.0,1.0,63,0.00,,,0.00,WeatherCatV1.02B3,2013-07-14 16:21:00,
2013-07-14 12:26:00,86.7,73.5,29.70,ESE,117,1.0,5.0,65,0.00,,,0.00,WeatherCatV1.02B3,2013-07-14 16:26:00,
2013-07-14 12:31:00,86.8,73.6,29.70,ESE,118,0.0,1.0,65,0.00,,,0.00,WeatherCatV1.02B3,2013-07-14 16:31:00,
2013-07-14 12:36:00,86.8,73.1,29.70,WNW,300,1.0,5.0,64,0.00,,,0.00,WeatherCatV1.02B3,2013-07-14 16:36:00,
2013-07-14 12:41:00,86.5,73.3,29.70,WNW,291,1.0,3.0,65,0.00,,,0.00,WeatherCatV1.02B3,2013-07-14 16:41:00,
2013-07-14 12:46:00,86.8,74.0,29.70,WNW,293,1.0,3.0,66,0.00,,,0.00,WeatherCatV1.02B3,2013-07-14 16:46:00,
2013-07-14 12:51:00,86.5,72.8,29.70,North,354,1.0,3.0,64,0.00,,,0.00,WeatherCatV1.02B3,2013-07-14 16:51:00,
2013-07-14 12:56:00,86.5,70.4,29.70,WNW,297,1.0,6.0,59,0.00,,,0.00,WeatherCatV1.02B3,2013-07-14 16:56:00,
2013-07-14 13:01:00,86.8,74.0,29.70,SE,128,1.0,2.0,66,0.00,,,0.00,WeatherCatV1.02B3,2013-07-14 17:01:00,
2013-07-14 13:06:00,86.7,73.5,29.70,SSE,163,1.0,3.0,65,0.00,,,0.00,WeatherCatV1.02B3,2013-07-14 17:06:00,
2013-07-14 13:11:00,87.1,72.9,29.70,SW,219,1.0,5.0,63,0.00,,,0.00,WeatherCatV1.02B3,2013-07-14 17:11:00,
2013-07-14 13:16:00,87.5,73.3,29.70,NW,326,2.0,3.0,63,0.00,,,0.00,WeatherCatV1.02B3,2013-07-14 17:16:00,
2013-07-14 13:21:00,87.5,71.9,29.70,East,84,1.0,7.0,60,0.00,,,0.00,WeatherCatV1.02B3,2013-07-14 17:21:00,
2013-07-14 13:26:00,86.9,71.8,29.70,North,359,1.0,5.0,61,0.00,,,0.00,WeatherCatV1.02B3,2013-07-14 17:26:00,
2013-07-14 13:31:00,87.2,73.5,29.69,SSW,211,0.0,1.0,64,0.00,,,0.00,WeatherCatV1.02B3,2013-07-14 17:31:00,
2013-07-14 13:36:00,87.1,72.0,29.69,NNE,32,1.0,2.0,61,0.00,,,0.00,WeatherCatV1.02B3,2013-07-14 17:36:00,
2013-07-14 13:41:00,86.8,72.2,29.70,NW,322,3.0,3.0,62,0.00,,,0.00,WeatherCatV1.02B3,2013-07-14 17:41:00,
2013-07-14 13:45:00,87.2,74.9,29.70,North,357,2.0,2.0,67,0.00,,,0.00,WeatherCatV1.02B3,2013-07-14 17:45:00,
2013-07-14 13:50:00,87.3,72.2,29.70,NW,305,1.0,3.0,61,0.00,,,0.00,WeatherCatV1.02B3,2013-07-14 17:50:00,
2013-07-14 13:55:00,86.6,73.4,29.70,ESE,115,0.0,2.0,65,0.00,,,0.00,WeatherCatV1.02B3,2013-07-14 17:55:00,
2013-07-14 14:00:00,86.1,73.8,29.69,WNW,286,0.0,3.0,67,0.00,,,0.00,WeatherCatV1.02B3,2013-07-14 18:00:00,
2013-07-14 14:05:00,86.0,72.8,29.69,NE,46,2.0,4.0,65,0.00,,,0.00,WeatherCatV1.02B3,2013-07-14 18:05:00,
2013-07-14 14:10:00,86.5,74.2,29.69,NE,52,3.0,3.0,67,0.00,,,0.00,WeatherCatV1.02B3,2013-07-14 18:10:00,
2013-07-14 14:15:00,87.2,72.1,29.69,SSE,148,2.0,4.0,61,0.00,,,0.00,WeatherCatV1.02B3,2013-07-14 18:15:00,
2013-07-14 14:20:00,86.8,73.6,29.69,West,276,1.0,3.0,65,0.00,,,0.00,WeatherCatV1.02B3,2013-07-14 18:20:00,
2013-07-14 14:25:00,87.6,71.5,29.69,ENE,70,1.0,4.0,59,0.00,,,0.00,WeatherCatV1.02B3,2013-07-14 18:25:00,
2013-07-14 14:30:00,88.2,74.0,29.69,NNW,328,1.0,5.0,63,0.00,,,0.00,WeatherCatV1.02B3,2013-07-14 18:30:00,
2013-07-14 14:35:00,88.6,71.9,29.69,West,264,1.0,4.0,58,0.00,,,0.00,WeatherCatV1.02B3,2013-07-14 18:35:00,
2013-07-14 14:40:00,89.3,74.5,29.69,NNE,27,1.0,2.0,62,0.00,,,0.00,WeatherCatV1.02B3,2013-07-14 18:40:00,
2013-07-14 14:45:00,90.0,74.7,29.69,NNE,29,4.0,4.0,61,0.00,,,0.00,WeatherCatV1.02B3,2013-07-14 18:45:00,
2013-07-14 14:50:00,89.7,72.9,29.69,ENE,62,1.0,3.0,58,0.00,,,0.00,WeatherCatV1.02B3,2013-07-14 18:50:00,
2013-07-14 14:55:00,89.7,70.8,29.69,NE,49,5.0,5.0,54,0.00,,,0.00,WeatherCatV1.02B3,2013-07-14 18:55:00,
2013-07-14 15:00:00,89.9,74.1,29.69,SSW,212,3.0,3.0,60,0.00,,,0.00,WeatherCatV1.02B3,2013-07-14 19:00:00,
2013-07-14 15:05:00,90.2,73.9,29.69,SSE,158,1.0,3.0,59,0.00,,,0.00,WeatherCatV1.02B3,2013-07-14 19:05:00,
2013-07-14 15:10:00,90.6,73.2,29.69,NNE,32,1.0,3.0,57,0.00,,,0.00,WeatherCatV1.02B3,2013-07-14 19:10:00,
2013-07-14 15:15:00,89.7,70.8,29.69,SW,236,0.0,1.0,54,0.00,,,0.00,WeatherCatV1.02B3,2013-07-14 19:15:00,
2013-07-14 15:20:00,88.1,71.9,29.69,SW,226,0.0,1.0,59,0.00,,,0.00,WeatherCatV1.02B3,2013-07-14 19:20:00,
2013-07-14 15:25:00,87.4,73.2,29.69,South,187,1.0,2.0,63,0.00,,,0.00,WeatherCatV1.02B3,2013-07-14 19:25:00,
2013-07-14 15:30:00,88.2,74.0,29.69,North,5,2.0,4.0,63,0.00,,,0.00,WeatherCatV1.02B3,2013-07-14 19:30:00,
2013-07-14 15:35:00,87.5,73.8,29.69,NNW,344,1.0,1.0,64,0.00,,,0.00,WeatherCatV1.02B3,2013-07-14 19:35:00,
2013-07-14 15:40:00,86.8,73.6,29.69,ESE,105,1.0,2.0,65,0.00,,,0.00,WeatherCatV1.02B3,2013-07-14 19:40:00,
2013-07-14 15:45:00,86.8,74.0,29.69,NNW,332,1.0,2.0,66,0.00,,,0.00,WeatherCatV1.02B3,2013-07-14 19:45:00,
2013-07-14 15:50:00,87.4,75.9,29.68,SE,131,2.0,2.0,69,0.00,,,0.00,WeatherCatV1.02B3,2013-07-14 19:50:00,
2013-07-14 15:55:00,88.3,75.0,29.69,WSW,243,1.0,4.0,65,0.00,,,0.00,WeatherCatV1.02B3,2013-07-14 19:55:00,
2013-07-14 16:00:00,87.0,72.8,29.69,NNE,15,1.0,2.0,63,0.00,,,0.00,WeatherCatV1.02B3,2013-07-14 20:00:00,
2013-07-14 16:05:00,86.5,74.2,29.68,SSE,163,0.0,0.0,67,0.00,,,0.00,WeatherCatV1.02B3,2013-07-14 20:05:00,
2013-07-14 16:10:00,87.3,73.6,29.68,ENE,58,1.0,2.0,64,0.00,,,0.00,WeatherCatV1.02B3,2013-07-14 20:10:00,
2013-07-14 16:15:00,87.1,73.4,29.68,SSW,197,1.0,3.0,64,0.00,,,0.00,WeatherCatV1.02B3,2013-07-14 20:15:00,
2013-07-14 16:20:00,87.0,72.8,29.68,WSW,255,2.0,3.0,63,0.00,,,0.00,WeatherCatV1.02B3,2013-07-14 20:20:00,
2013-07-14 16:25:00,87.0,73.3,29.68,NNW,339,1.0,4.0,64,0.00,,,0.00,WeatherCatV1.02B3,2013-07-14 20:25:00,
2013-07-14 16:30:00,86.8,73.1,29.68,North,9,0.0,4.0,64,0.00,,,0.00,WeatherCatV1.02B3,2013-07-14 20:30:00,
2013-07-14 16:35:00,86.8,73.6,29.68,WNW,300,1.0,3.0,65,0.00,,,0.00,WeatherCatV1.02B3,2013-07-14 20:35:00,
2013-07-14 16:40:00,87.3,72.2,29.68,ESE,117,1.0,2.0,61,0.00,,,0.00,WeatherCatV1.02B3,2013-07-14 20:40:00,
2013-07-14 16:45:00,87.7,73.5,29.68,NNW,346,0.0,3.0,63,0.00,,,0.00,WeatherCatV1.02B3,2013-07-14 20:45:00,
2013-07-14 16:50:00,87.9,72.2,29.68,NNW,345,3.0,8.0,60,0.00,,,0.00,WeatherCatV1.02B3,2013-07-14 20:50:00,
2013-07-14 16:55:00,87.1,73.9,29.68,SW,236,2.0,3.0,65,0.00,,,0.00,WeatherCatV1.02B3,2013-07-14 20:55:00,
2013-07-14 17:00:00,87.1,72.9,29.68,NW,322,3.0,4.0,63,0.00,,,0.00,WeatherCatV1.02B3,2013-07-14 21:00:00,
2013-07-14 17:05:00,87.1,72.5,29.68,SE,126,0.0,2.0,62,0.00,,,0.00,WeatherCatV1.02B3,2013-07-14 21:05:00,
2013-07-14 17:10:00,87.0,73.3,29.68,NE,52,2.0,4.0,64,0.00,,,0.00,WeatherCatV1.02B3,2013-07-14 21:10:00,
2013-07-14 17:15:00,86.4,71.8,29.68,East,91,2.0,3.0,62,0.00,,,0.00,WeatherCatV1.02B3,2013-07-14 21:15:00,
2013-07-14 17:20:00,85.3,72.2,29.68,WSW,256,0.0,0.0,65,0.00,,,0.00,WeatherCatV1.02B3,2013-07-14 21:20:00,
2013-07-14 17:25:00,85.7,73.4,29.68,ESE,119,0.0,2.0,67,0.00,,,0.00,WeatherCatV1.02B3,2013-07-14 21:25:00,
2013-07-14 17:30:00,86.2,72.6,29.68,NNE,15,2.0,3.0,64,0.00,,,0.00,WeatherCatV1.02B3,2013-07-14 21:30:00,
2013-07-14 17:35:00,86.5,72.8,29.68,NE,51,0.0,2.0,64,0.00,,,0.00,WeatherCatV1.02B3,2013-07-14 21:35:00,
2013-07-14 17:40:00,86.3,72.2,29.68,SSW,207,0.0,4.0,63,0.00,,,0.00,WeatherCatV1.02B3,2013-07-14 21:40:00,
2013-07-14 17:45:00,86.1,71.5,29.68,East,95,1.0,3.0,62,0.00,,,0.00,WeatherCatV1.02B3,2013-07-14 21:45:00,
2013-07-14 17:50:00,86.2,73.5,29.68,WNW,302,2.0,2.0,66,0.00,,,0.00,WeatherCatV1.02B3,2013-07-14 21:50:00,
2013-07-14 17:55:00,86.1,72.0,29.68,SW,233,0.0,2.0,63,0.00,,,0.00,WeatherCatV1.02B3,2013-07-14 21:55:00,
2013-07-14 18:00:00,86.0,71.9,29.68,SSW,200,1.0,1.0,63,0.00,,,0.00,WeatherCatV1.02B3,2013-07-14 22:00:00,
2013-07-14 18:05:00,86.2,72.6,29.67,South,191,0.0,1.0,64,0.00,,,0.00,WeatherCatV1.02B3,2013-07-14 22:05:00,
2013-07-14 18:10:00,86.2,72.6,29.67,North,349,1.0,1.0,64,0.00,,,0.00,WeatherCatV1.02B3,2013-07-14 22:10:00,
2013-07-14 18:11:00,86.2,71.6,29.68,East,95,1.0,2.0,62,0.00,,,0.00,WeatherCatV1.02B3,2013-07-14 22:11:00,
2013-07-14 18:16:00,86.3,72.2,29.67,ENE,60,1.0,3.0,63,0.00,,,0.00,WeatherCatV1.02B3,2013-07-14 22:16:00,
2013-07-14 18:21:00,86.6,73.4,29.68,NW,311,0.0,1.0,65,0.00,,,0.00,WeatherCatV1.02B3,2013-07-14 22:21:00,
2013-07-14 18:26:00,87.0,71.9,29.67,ENE,58,0.0,2.0,61,0.00,,,0.00,WeatherCatV1.02B3,2013-07-14 22:26:00,
2013-07-14 18:31:00,87.3,73.1,29.67,SW,221,0.0,1.0,63,0.00,,,0.00,WeatherCatV1.02B3,2013-07-14 22:31:00,
2013-07-14 18:36:00,87.8,72.1,29.67,ESE,113,0.0,2.0,60,0.00,,,0.00,WeatherCatV1.02B3,2013-07-14 22:36:00,
2013-07-14 18:41:00,87.2,72.1,29.67,ESE,108,1.0,3.0,61,0.00,,,0.00,WeatherCatV1.02B3,2013-07-14 22:41:00,
2013-07-14 18:46:00,86.8,73.1,29.67,WSW,255,0.0,1.0,64,0.00,,,0.00,WeatherCatV1.02B3,2013-07-14 22:46:00,
2013-07-14 18:51:00,86.6,71.5,29.67,ENE,72,2.0,3.0,61,0.00,,,0.00,WeatherCatV1.02B3,2013-07-14 22:51:00,
2013-07-14 18:56:00,85.3,71.2,29.67,ESE,103,0.0,3.0,63,0.00,,,0.00,WeatherCatV1.02B3,2013-07-14 22:56:00,
2013-07-14 19:01:00,85.1,71.5,29.67,NW,304,0.0,3.0,64,0.00,,,0.00,WeatherCatV1.02B3,2013-07-14 23:01:00,
2013-07-14 19:06:00,85.0,71.9,29.67,SW,218,0.0,0.0,65,0.00,,,0.00,WeatherCatV1.02B3,2013-07-14 23:06:00,
2013-07-14 19:11:00,85.1,72.0,29.67,NW,326,1.0,1.0,65,0.00,,,0.00,WeatherCatV1.02B3,2013-07-14 23:11:00,
2013-07-14 19:16:00,84.8,70.8,29.67,ENE,75,0.0,2.0,63,0.00,,,0.00,WeatherCatV1.02B3,2013-07-14 23:16:00,
2013-07-14 19:21:00,84.1,70.6,29.67,ENE,70,1.0,3.0,64,0.00,,,0.00,WeatherCatV1.02B3,2013-07-14 23:21:00,
2013-07-14 19:26:00,84.0,70.9,29.67,ESE,114,1.0,2.0,65,0.00,,,0.00,WeatherCatV1.02B3,2013-07-14 23:26:00,
2013-07-14 19:31:00,84.3,71.7,29.67,NW,315,0.0,0.0,66,0.00,,,0.00,WeatherCatV1.02B3,2013-07-14 23:31:00,
2013-07-14 19:36:00,84.2,71.1,29.67,WNW,294,0.0,1.0,65,0.00,,,0.00,WeatherCatV1.02B3,2013-07-14 23:36:00,
2013-07-14 19:41:00,84.1,71.0,29.68,SSW,208,0.0,1.0,65,0.00,,,0.00,WeatherCatV1.02B3,2013-07-14 23:41:00,
2013-07-14 19:46:00,84.0,71.4,29.68,NE,47,0.0,1.0,66,0.00,,,0.00,WeatherCatV1.02B3,2013-07-14 23:46:00,
2013-07-14 19:51:00,83.9,70.8,29.67,NW,305,0.0,2.0,65,0.00,,,0.00,WeatherCatV1.02B3,2013-07-14 23:51:00,
2013-07-14 19:56:00,83.8,72.1,29.67,East,89,0.0,0.0,68,0.00,,,0.00,WeatherCatV1.02B3,2013-07-14 23:56:00,
2013-07-14 20:01:00,83.6,71.5,29.68,ENE,74,1.0,2.0,67,0.00,,,0.00,WeatherCatV1.02B3,2013-07-15 00:01:00,
2013-07-14 20:06:00,83.4,71.3,29.67,North,6,0.0,0.0,67,0.00,,,0.00,WeatherCatV1.02B3,2013-07-15 00:06:00,
2013-07-14 20:11:00,83.3,71.6,29.67,NE,49,0.0,0.0,68,0.00,,,0.00,WeatherCatV1.02B3,2013-07-15 00:11:00,
2013-07-14 20:16:00,83.1,71.8,29.68,ENE,71,0.0,0.0,69,0.00,,,0.00,WeatherCatV1.02B3,2013-07-15 00:16:00,
2013-07-14 20:21:00,83.0,70.9,29.68,ENE,58,0.0,0.0,67,0.00,,,0.00,WeatherCatV1.02B3,2013-07-15 00:21:00,
2013-07-14 20:26:00,82.6,70.9,29.68,ENE,70,0.0,1.0,68,0.00,,,0.00,WeatherCatV1.02B3,2013-07-15 00:26:00,
2013-07-14 20:31:00,82.3,71.1,29.68,ENE,70,0.0,1.0,69,0.00,,,0.00,WeatherCatV1.02B3,2013-07-15 00:31:00,
2013-07-14 20:36:00,81.8,71.0,29.68,ENE,70,0.0,1.0,70,0.00,,,0.00,WeatherCatV1.02B3,2013-07-15 00:36:00,
2013-07-14 20:41:00,81.1,71.2,29.68,ENE,70,0.0,0.0,72,0.00,,,0.00,WeatherCatV1.02B3,2013-07-15 00:41:00,
2013-07-14 20:46:00,80.8,70.9,29.68,ENE,70,0.0,1.0,72,0.00,,,0.00,WeatherCatV1.02B3,2013-07-15 00:46:00,
2013-07-14 20:51:00,80.1,71.0,29.68,ENE,68,0.0,0.0,74,0.00,,,0.00,WeatherCatV1.02B3,2013-07-15 00:51:00,
2013-07-14 20:56:00,79.7,71.4,29.68,ENE,68,0.0,0.0,76,0.00,,,0.00,WeatherCatV1.02B3,2013-07-15 00:56:00,
2013-07-14 21:01:00,79.1,70.9,29.68,ENE,68,0.0,0.0,76,0.00,,,0.00,WeatherCatV1.02B3,2013-07-15 01:01:00,
2013-07-14 21:06:00,78.6,71.1,29.68,ENE,68,0.0,0.0,78,0.00,,,0.00,WeatherCatV1.02B3,2013-07-15 01:06:00,
2013-07-14 21:11:00,77.9,71.2,29.68,ENE,68,0.0,0.0,80,0.00,,,0.00,WeatherCatV1.02B3,2013-07-15 01:11:00,
2013-07-14 21:16:00,77.3,71.0,29.68,ENE,68,0.0,0.0,81,0.00,,,0.00,WeatherCatV1.02B3,2013-07-15 01:16:00,
2013-07-14 21:21:00,76.7,70.8,29.68,ENE,68,0.0,0.0,82,0.00,,,0.00,WeatherCatV1.02B3,2013-07-15 01:21:00,
2013-07-14 21:26:00,76.2,70.6,29.68,ENE,68,0.0,0.0,83,0.00,,,0.00,WeatherCatV1.02B3,2013-07-15 01:26:00,
2013-07-14 21:31:00,75.7,70.5,29.69,ENE,68,0.0,0.0,84,0.00,,,0.00,WeatherCatV1.02B3,2013-07-15 01:31:00,
2013-07-14 21:36:00,75.3,70.5,29.69,ENE,68,0.0,0.0,85,0.00,,,0.00,WeatherCatV1.02B3,2013-07-15 01:36:00,
2013-07-14 21:41:00,74.9,70.4,29.69,ENE,68,0.0,0.0,86,0.00,,,0.00,WeatherCatV1.02B3,2013-07-15 01:41:00,
2013-07-14 21:46:00,74.5,70.4,29.69,ENE,68,0.0,0.0,87,0.00,,,0.00,WeatherCatV1.02B3,2013-07-15 01:46:00,
2013-07-14 21:51:00,74.2,70.4,29.69,ENE,68,0.0,0.0,88,0.00,,,0.00,WeatherCatV1.02B3,2013-07-15 01:51:00,
2013-07-14 21:56:00,73.8,70.0,29.69,ENE,68,0.0,0.0,88,0.00,,,0.00,WeatherCatV1.02B3,2013-07-15 01:56:00,
2013-07-14 22:01:00,73.5,70.0,29.69,ENE,68,0.0,0.0,89,0.00,,,0.00,WeatherCatV1.02B3,2013-07-15 02:01:00,
2013-07-14 22:06:00,73.2,70.1,29.69,ENE,68,0.0,0.0,90,0.00,,,0.00,WeatherCatV1.02B3,2013-07-15 02:06:00,
2013-07-14 22:11:00,73.0,70.2,29.69,ENE,68,0.0,0.0,91,0.00,,,0.00,WeatherCatV1.02B3,2013-07-15 02:11:00,
2013-07-14 22:16:00,72.8,70.0,29.69,ENE,68,0.0,0.0,91,0.00,,,0.00,WeatherCatV1.02B3,2013-07-15 02:16:00,
2013-07-14 22:21:00,72.6,69.8,29.69,ENE,68,0.0,0.0,91,0.00,,,0.00,WeatherCatV1.02B3,2013-07-15 02:21:00,
2013-07-14 22:26:00,72.5,70.0,29.70,ENE,68,0.0,0.0,92,0.00,,,0.00,WeatherCatV1.02B3,2013-07-15 02:26:00,
2013-07-14 22:31:00,72.3,69.8,29.70,ENE,68,0.0,0.0,92,0.00,,,0.00,WeatherCatV1.02B3,2013-07-15 02:31:00,
2013-07-14 22:36:00,72.1,70.0,29.70,ENE,68,0.0,0.0,93,0.00,,,0.00,WeatherCatV1.02B3,2013-07-15 02:36:00,
2013-07-14 22:41:00,72.0,69.9,29.70,ENE,68,0.0,0.0,93,0.00,,,0.00,WeatherCatV1.02B3,2013-07-15 02:41:00,
2013-07-14 22:46:00,71.8,69.7,29.70,ENE,68,0.0,0.0,93,0.00,,,0.00,WeatherCatV1.02B3,2013-07-15 02:46:00,
2013-07-14 22:51:00,71.7,69.9,29.70,ENE,68,0.0,0.0,94,0.00,,,0.00,WeatherCatV1.02B3,2013-07-15 02:51:00,
2013-07-14 22:56:00,71.6,69.8,29.70,ENE,68,0.0,0.0,94,0.00,,,0.00,WeatherCatV1.02B3,2013-07-15 02:56:00,
2013-07-14 23:01:00,71.5,69.7,29.70,ENE,68,0.0,0.0,94,0.00,,,0.00,WeatherCatV1.02B3,2013-07-15 03:01:00,
2013-07-14 23:06:00,71.4,69.6,29.70,ENE,68,0.0,0.0,94,0.00,,,0.00,WeatherCatV1.02B3,2013-07-15 03:06:00,
2013-07-14 23:11:00,71.2,69.7,29.70,ENE,68,0.0,0.0,95,0.00,,,0.00,WeatherCatV1.02B3,2013-07-15 03:11:00,
2013-07-14 23:16:00,71.3,69.8,29.70,ENE,68,0.0,0.0,95,0.00,,,0.00,WeatherCatV1.02B3,2013-07-15 03:16:00,
2013-07-14 23:21:00,71.2,69.7,29.70,ENE,68,0.0,0.0,95,0.00,,,0.00,WeatherCatV1.02B3,2013-07-15 03:21:00,
2013-07-14 23:26:00,71.1,69.6,29.70,ENE,68,0.0,0.0,95,0.00,,,0.00,WeatherCatV1.02B3,2013-07-15 03:26:00,
2013-07-14 23:31:00,71.1,69.6,29.70,ENE,68,0.0,0.0,95,0.00,,,0.00,WeatherCatV1.02B3,2013-07-15 03:31:00,
2013-07-14 23:36:00,71.0,69.5,29.70,ENE,68,0.0,0.0,95,0.00,,,0.00,WeatherCatV1.02B3,2013-07-15 03:36:00,
2013-07-14 23:41:00,70.8,69.3,29.70,ENE,68,0.0,0.0,95,0.00,,,0.00,WeatherCatV1.02B3,2013-07-15 03:41:00,
2013-07-14 23:46:00,70.7,69.2,29.70,ENE,68,0.0,0.0,95,0.00,,,0.00,WeatherCatV1.02B3,2013-07-15 03:46:00,
2013-07-14 23:51:00,70.6,69.4,29.71,ENE,68,0.0,0.0,96,0.00,,,0.00,WeatherCatV1.02B3,2013-07-15 03:51:00,
2013-07-14 23:56:00,70.5,69.3,29.70,ENE,68,0.0,0.0,96,0.00,,,0.00,WeatherCatV1.02B3,2013-07-15 03:56:00,